Location: Prairie State College
(41.5244°N, 87.6382°W)
Time: 01:50:46
(UTC-06:00)

ISS - All Passes

Search period start: 21 November 2017 00:00
Search period end: 01 December 2017 00:00
Orbit: 402 x 407 km, 51.6° (Epoch: 21 November)

Date Brightness Start Highest point End Pass type
(mag) Time Alt. Az. Time Alt. Az. Time Alt. Az.
21 Nov - 00:24:44 10° NNW 00:26:35 14° N 00:28:27 10° NE night (unlit)
21 Nov - 02:01:00 10° NW 02:03:53 27° NNE 02:06:44 10° E night (unlit)
21 Nov - 03:37:20 10° WNW 03:40:27 44° SW 03:43:34 10° SSE night (unlit)
21 Nov - 20:16:55 10° SW 20:20:06 49° SE 20:23:16 10° ENE night (unlit)
21 Nov - 21:53:52 10° W 21:56:42 26° NNW 21:59:32 10° NE night (unlit)
21 Nov - 23:32:10 10° NW 23:34:01 14° N 23:35:51 10° NNE night (unlit)
22 Nov - 01:08:52 10° NNW 01:11:25 20° NNE 01:13:57 10° ENE night (unlit)
22 Nov - 02:44:58 10° NW 02:48:14 87° SW 02:51:29 10° SE night (unlit)
22 Nov - 19:25:10 10° SSW 19:27:55 25° SE 19:30:42 10° ENE night (unlit)
22 Nov - 21:01:10 10° W 21:04:17 39° NNW 21:07:25 10° NE night (unlit)
22 Nov - 22:39:23 10° NW 22:41:26 15° N 22:43:29 10° NNE night (unlit)
23 Nov - 00:16:41 10° NNW 00:18:53 16° NNE 00:21:04 10° NE night (unlit)
23 Nov - 01:52:44 10° NW 01:55:56 51° NNE 01:59:07 10° ESE night (unlit)
23 Nov - 03:29:48 10° W 03:32:09 19° SW 03:34:30 10° S night (unlit)
23 Nov - 18:34:07 10° SSE 18:35:50 14° SE 18:37:34 10° E visible
23 Nov - 20:08:40 10° WSW 20:11:56 69° NNW 20:15:12 10° NE night (unlit)
23 Nov - 21:46:29 10° WNW 21:48:52 18° NNW 21:51:14 10° NNE night (unlit)
23 Nov - 23:24:22 10° NNW 23:26:18 14° N 23:28:12 10° NE night (unlit)
24 Nov - 01:00:33 10° NW 01:03:32 31° NNE 01:06:30 10° E night (unlit)
24 Nov - 02:37:00 10° WNW 02:40:01 35° SW 02:43:01 10° SSE night (unlit)
24 Nov - 19:16:24 10° SW 19:19:38 62° SE 19:22:53 10° ENE visible
24 Nov - 20:53:37 10° WNW 20:56:20 23° NNW 20:59:04 10° NE night (unlit)
24 Nov - 22:31:51 10° NW 22:33:41 14° N 22:35:31 10° NNE night (unlit)
25 Nov - 00:08:23 10° NW 00:11:03 22° NNE 00:13:42 10° ENE night (unlit)
25 Nov - 01:44:32 10° WNW 01:47:47 70° SW 01:51:01 10° SE night (unlit)
25 Nov - 18:24:28 10° SSW 18:27:24 31° SE 18:30:22 10° ENE visible
25 Nov - 20:00:49 10° W 20:03:51 34° NNW 20:06:53 10° NE night (unlit)
25 Nov - 21:39:06 10° NW 21:41:03 15° N 21:43:01 10° NNE night (unlit)
25 Nov - 23:16:12 10° NNW 23:18:30 18° NNE 23:20:48 10° ENE night (unlit)
26 Nov - 00:52:13 10° NW 00:55:28 62° NNE 00:58:41 10° ESE night (unlit)
26 Nov - 02:29:39 10° W 02:31:36 15° SW 02:33:33 10° SSW night (unlit)
26 Nov - 17:33:02 10° S 17:35:15 17° SE 17:37:28 10° E visible
26 Nov - 19:08:12 10° WSW 19:11:26 56° NNW 19:14:40 10° NE visible
26 Nov - 20:46:11 10° WNW 20:48:27 17° NNW 20:50:42 10° NNE night (unlit)
26 Nov - 22:23:53 10° NNW 22:25:53 15° N 22:27:54 10° NE night (unlit)
27 Nov - 00:00:00 10° NW 00:03:03 36° NNE 00:06:07 10° E night (unlit)
27 Nov - 01:36:36 10° WNW 01:39:27 28° SW 01:42:17 10° SSE night (unlit)
27 Nov - 18:15:48 10° SW 18:19:04 79° SE 18:22:21 10° ENE visible
27 Nov - 19:53:15 10° WNW 19:55:52 21° NNW 19:58:28 10° NE visible
27 Nov - 21:31:24 10° NNW 21:33:14 14° N 21:35:04 10° NE night (unlit)
27 Nov - 23:07:47 10° NW 23:10:33 25° NNE 23:13:20 10° E night (unlit)
28 Nov - 00:44:01 10° WNW 00:47:13 55° SW 00:50:24 10° SE night (unlit)
28 Nov - 17:23:42 10° SSW 17:26:47 40° SE 17:29:53 10° ENE visible
28 Nov - 19:00:23 10° W 19:03:19 29° NNW 19:06:15 10° NE visible
28 Nov - 20:38:41 10° NW 20:40:34 14° N 20:42:28 10° NNE night (unlit)
28 Nov - 22:15:34 10° NNW 22:18:00 19° NNE 22:20:25 10° ENE night (unlit)
28 Nov - 23:51:36 10° NW 23:54:53 77° NNE 23:58:09 10° ESE night (unlit)
29 Nov - 01:29:37 10° WSW 01:30:55 12° SW 01:32:14 10° SSW night (unlit)
29 Nov - 16:32:01 10° S 16:34:33 21° SE 16:37:07 10° E daylight
29 Nov - 18:07:40 10° WSW 18:10:50 46° NNW 18:14:01 10° NE visible
29 Nov - 19:45:46 10° NW 19:47:55 16° N 19:50:03 10° NNE visible
29 Nov - 21:23:15 10° NNW 21:25:21 16° N 21:27:27 10° NE night (unlit)
29 Nov - 22:59:19 10° NW 23:02:28 43° NNE 23:05:36 10° ESE night (unlit)
30 Nov - 00:36:08 10° W 00:38:45 22° SW 00:41:23 10° S night (unlit)
30 Nov - 15:41:23 10° SSE 15:42:24 11° SE 15:43:25 10° ESE daylight
30 Nov - 17:15:08 10° SW 17:18:24 83° NW 17:21:42 10° NE visible
30 Nov - 18:52:47 10° WNW 18:55:16 20° NNW 18:57:46 10° NNE visible
30 Nov - 20:30:48 10° NNW 20:32:41 14° N 20:34:33 10° NE night (unlit)
30 Nov - 22:07:03 10° NW 22:09:57 28° NNE 22:12:50 10° E night (unlit)
30 Nov - 23:43:23 10° WNW 23:46:31 43° SW 23:49:37 10° SSE night (unlit)
